| time (UTC) | temp F | wind direction | speed MPH | gust MPH | rain 1hr in | rain 24hr in | rain mn in | humidity % | barometer mb |
| 20260906224517 | 65 | 332 | 4.0 | 9.0 | 0.00 | 0.01 | 0.01 | 73 | 1015.1 |
| 20260906223016 | 65 | 344 | 3.0 | 9.0 | 0.00 | 0.01 | 0.01 | 73 | 1015.1 |
| 20260906221515 | 65 | 335 | 3.0 | 10.0 | 0.00 | 0.01 | 0.01 | 73 | 1015.1 |
| 20260906220015 | 65 | 344 | 5.0 | 11.0 | 0.00 | 0.01 | 0.01 | 72 | 1015.0 |
| 20260906214511 | 65 | 355 | 4.0 | 10.0 | 0.00 | 0.01 | 0.01 | 74 | 1015.0 |
| 20260906213009 | 64 | 25 | 3.0 | 11.0 | 0.00 | 0.01 | 0.01 | 75 | 1015.2 |
| 20260906211506 | 64 | 338 | 5.0 | 10.0 | 0.00 | 0.01 | 0.01 | 76 | 1015.2 |
| 20260906210107 | 63 | 25 | 5.0 | 12.0 | 0.00 | 0.01 | 0.01 | 77 | 1015.2 |
| 20260906204504 | 63 | 34 | 4.0 | 10.0 | 0.00 | 0.01 | 0.01 | 77 | 1015.4 |
| 20260906203003 | 63 | 355 | 3.0 | 10.0 | 0.00 | 0.01 | 0.01 | 77 | 1015.4 |
| 20260906201503 | 62 | 342 | 4.0 | 12.0 | 0.00 | 0.01 | 0.01 | 76 | 1015.4 |
| 20260906200003 | 63 | 11 | 4.0 | 11.0 | 0.00 | 0.01 | 0.01 | 75 | 1015.5 |
| 20260906194601 | 63 | 344 | 3.0 | 13.0 | 0.00 | 0.01 | 0.01 | 75 | 1015.5 |
| 20260906193100 | 63 | 29 | 4.0 | 13.0 | 0.00 | 0.01 | 0.01 | 73 | 1015.5 |
| 20260906191557 | 62 | 355 | 8.0 | 16.0 | 0.00 | 0.01 | 0.01 | 74 | 1015.4 |
| 20260906190111 | 62 | 52 | 6.0 | 14.0 | 0.00 | 0.01 | 0.01 | 77 | 1015.5 |
| 20260906184554 | 61 | 360 | 5.0 | 12.0 | 0.00 | 0.01 | 0.01 | 79 | 1015.7 |
| 20260906183052 | 60 | 355 | 7.0 | 14.0 | 0.00 | 0.01 | 0.01 | 81 | 1015.9 |
| 20260906181545 | 59 | 77 | 10.0 | 17.0 | 0.00 | 0.01 | 0.01 | 87 | 1015.3 |
| 20260906180043 | 56 | 351 | 8.0 | 12.0 | 0.00 | 0.01 | 0.01 | 91 | 1016.2 |
| 20260906174542 | 55 | 5 | 2.0 | 10.0 | 0.00 | 0.01 | 0.01 | 92 | 1017.2 |
| 20260906173037 | 54 | 314 | 3.0 | 9.0 | 0.00 | 0.01 | 0.01 | 92 | 1017.4 |
| 20260906171537 | 55 | 355 | 4.0 | 9.0 | 0.00 | 0.01 | 0.01 | 93 | 1017.3 |
| 20260906170036 | 56 | 341 | 4.0 | 10.0 | 0.00 | 0.01 | 0.01 | 94 | 1017.3 |
| 20260906164537 | 56 | 49 | 3.0 | 7.0 | 0.01 | 0.01 | 0.01 | 95 | 1017.2 |
| 20260906163035 | 55 | 333 | 2.0 | 6.0 | 0.01 | 0.01 | 0.01 | 95 | 1017.3 |
| 20260906161535 | 55 | 16 | 2.0 | 6.0 | 0.01 | 0.01 | 0.01 | 95 | 1017.2 |
| 20260906160034 | 54 | 345 | 3.0 | 6.0 | 0.01 | 0.01 | 0.01 | 93 | 1017.4 |
| 20260906154541 | 54 | 329 | 3.0 | 9.0 | 0.00 | 0.00 | 0.00 | 92 | 1017.5 |
| 20260906153033 | 54 | 284 | 6.0 | 12.0 | 0.00 | 0.00 | 0.00 | 90 | 1017.8 |
| 20260906151533 | 57 | 291 | 6.0 | 14.0 | 0.00 | 0.00 | 0.00 | 90 | 1017.9 |
| 20260906150040 | 57 | 5 | 1.0 | 8.0 | 0.00 | 0.00 | 0.00 | 90 | 1017.7 |
| 20260906144533 | 57 | 32 | 2.0 | 6.0 | 0.00 | 0.00 | 0.00 | 91 | 1017.7 |
| 20260906143029 | 56 | 42 | 3.0 | 11.0 | 0.00 | 0.00 | 0.00 | 92 | 1017.5 |
| 20260906141527 | 56 | 16 | 4.0 | 11.0 | 0.00 | 0.00 | 0.00 | 93 | 1017.3 |
| 20260906140027 | 55 | 49 | 4.0 | 9.0 | 0.00 | 0.00 | 0.00 | 94 | 1017.7 |
| 20260906134539 | 54 | 30 | 5.0 | 11.0 | 0.00 | 0.01 | 0.00 | 94 | 1017.4 |
| 20260906133042 | 54 | 29 | 4.0 | 11.0 | 0.00 | 0.01 | 0.00 | 94 | 1017.3 |
| 20260906131525 | 54 | 54 | 2.0 | 8.0 | 0.00 | 0.01 | 0.00 | 95 | 1017.4 |
| 20260906130025 | 53 | 5 | 3.0 | 8.0 | 0.00 | 0.01 | 0.00 | 95 | 1017.6 |
| 20260906124524 | 53 | 344 | 3.0 | 9.0 | 0.00 | 0.01 | 0.00 | 95 | 1017.8 |
| 20260906123029 | 53 | 24 | 4.0 | 11.0 | 0.00 | 0.01 | 0.00 | 95 | 1017.4 |
| 20260906121522 | 53 | 355 | 6.0 | 14.0 | 0.00 | 0.01 | 0.00 | 94 | 1017.4 |
| 20260906120021 | 53 | 28 | 6.0 | 13.0 | 0.00 | 0.01 | 0.00 | 94 | 1017.6 |
| 20260906114521 | 53 | 350 | 6.0 | 13.0 | 0.00 | 0.01 | 0.00 | 94 | 1017.5 |
| 20260906113020 | 53 | 338 | 8.0 | 15.0 | 0.00 | 0.01 | 0.00 | 94 | 1017.4 |
| 20260906111519 | 53 | 28 | 7.0 | 15.0 | 0.00 | 0.01 | 0.00 | 94 | 1017.6 |
| 20260906110017 | 54 | 44 | 5.0 | 13.0 | 0.00 | 0.01 | 0.00 | 94 | 1017.6 |
| 20260906104522 | 54 | 355 | 6.0 | 14.0 | 0.00 | 0.01 | 0.00 | 94 | 1017.6 |
| 20260906103015 | 53 | 355 | 8.0 | 16.0 | 0.00 | 0.01 | 0.00 | 94 | 1017.6 |
| 20260906101526 | 53 | 5 | 9.0 | 15.0 | 0.00 | 0.01 | 0.00 | 94 | 1017.8 |
| 20260906100014 | 53 | 350 | 8.0 | 17.0 | 0.00 | 0.01 | 0.00 | 94 | 1017.6 |
| 20260906094512 | 53 | 21 | 10.0 | 16.0 | 0.00 | 0.01 | 0.00 | 94 | 1017.4 |
| 20260906093010 | 52 | 315 | 4.0 | 15.0 | 0.00 | 0.01 | 0.00 | 93 | 1017.9 |
| 20260906091508 | 53 | 309 | 3.0 | 18.0 | 0.00 | 0.01 | 0.00 | 93 | 1017.9 |
| 20260906090007 | 53 | 317 | 10.0 | 18.0 | 0.00 | 0.01 | 0.00 | 92 | 1018.0 |
| 20260906084502 | 53 | 360 | 10.0 | 18.0 | 0.00 | 0.01 | 0.00 | 92 | 1018.1 |
| 20260906083101 | 53 | 17 | 10.0 | 21.0 | 0.00 | 0.01 | 0.00 | 91 | 1018.2 |
| 20260906081556 | 54 | 9 | 9.0 | 19.0 | 0.00 | 0.01 | 0.00 | 90 | 1018.3 |
| 20260906080054 | 54 | 30 | 9.0 | 18.0 | 0.00 | 0.01 | 0.00 | 89 | 1018.1 |
| 20260906074551 | 54 | 335 | 7.0 | 14.0 | 0.00 | 0.01 | 0.00 | 88 | 1018.3 |
| 20260906073048 | 55 | 11 | 6.0 | 14.0 | 0.00 | 0.01 | 0.00 | 88 | 1018.4 |
| 20260906071546 | 55 | 355 | 8.0 | 16.0 | 0.00 | 0.01 | 0.00 | 88 | 1018.6 |
| 20260906070045 | 55 | 26 | 9.0 | 18.0 | 0.00 | 0.01 | 0.00 | 87 | 1018.7 |
| 20260906064542 | 55 | 355 | 8.0 | 17.0 | 0.00 | 0.01 | 0.00 | 87 | 1018.8 |
| 20260906063040 | 55 | 5 | 7.0 | 16.0 | 0.00 | 0.01 | 0.00 | 87 | 1019.1 |
| 20260906061538 | 55 | 344 | 8.0 | 15.0 | 0.00 | 0.01 | 0.00 | 86 | 1019.1 |
| 20260906060036 | 56 | 360 | 11.0 | 17.0 | 0.00 | 0.01 | 0.00 | 86 | 1019.0 |
| 20260906054534 | 56 | 336 | 10.0 | 18.0 | 0.00 | 0.01 | 0.01 | 85 | 1019.0 |
| 20260906053039 | 56 | 355 | 11.0 | 19.0 | 0.00 | 0.01 | 0.01 | 85 | 1018.7 |
| 20260906051534 | 56 | 33 | 9.0 | 24.0 | 0.00 | 0.01 | 0.01 | 84 | 1018.6 |
| 20260906050031 | 56 | 35 | 11.0 | 22.0 | 0.00 | 0.01 | 0.01 | 83 | 1018.6 |
| 20260906044531 | 56 | 13 | 6.0 | 16.0 | 0.00 | 0.01 | 0.01 | 82 | 1019.5 |
| 20260906043031 | 56 | 344 | 10.0 | 19.0 | 0.00 | 0.01 | 0.01 | 81 | 1018.3 |
| 20260906041530 | 57 | 297 | 10.0 | 20.0 | 0.00 | 0.01 | 0.01 | 80 | 1018.1 |
| 20260906040035 | 57 | 5 | 11.0 | 19.0 | 0.00 | 0.01 | 0.01 | 78 | 1018.2 |
| 20260906034540 | 58 | 11 | 8.0 | 19.0 | 0.00 | 0.01 | 0.01 | 75 | 1018.4 |
| 20260906033028 | 58 | 312 | 10.0 | 18.0 | 0.00 | 0.01 | 0.01 | 75 | 1018.5 |
| 20260906031532 | 58 | 300 | 7.0 | 15.0 | 0.00 | 0.01 | 0.01 | 75 | 1018.8 |
| 20260906030027 | 58 | 5 | 12.0 | 22.0 | 0.00 | 0.01 | 0.01 | 74 | 1017.7 |
| 20260906024527 | 58 | 360 | 10.0 | 20.0 | 0.00 | 0.01 | 0.01 | 73 | 1017.4 |
| 20260906023026 | 58 | 348 | 8.0 | 20.0 | 0.00 | 0.01 | 0.01 | 72 | 1017.3 |
| 20260906021527 | 59 | 331 | 10.0 | 18.0 | 0.00 | 0.01 | 0.01 | 72 | 1017.4 |
| 20260906020029 | 60 | 360 | 9.0 | 21.0 | 0.00 | 0.01 | 0.01 | 69 | 1017.4 |
| 20260906014533 | 61 | 5 | 10.0 | 20.0 | 0.00 | 0.01 | 0.01 | 68 | 1017.4 |
| 20260906013029 | 62 | 9 | 7.0 | 15.0 | 0.00 | 0.01 | 0.01 | 65 | 1017.3 |
| 20260906011523 | 63 | 334 | 7.0 | 16.0 | 0.00 | 0.01 | 0.01 | 62 | 1017.3 |
| 20260906010022 | 65 | 5 | 8.0 | 17.0 | 0.00 | 0.01 | 0.01 | 59 | 1017.2 |
| 20260906004522 | 67 | 339 | 8.0 | 15.0 | 0.00 | 0.01 | 0.01 | 57 | 1017.3 |
| 20260906003021 | 68 | 5 | 6.0 | 15.0 | 0.00 | 0.01 | 0.01 | 54 | 1017.3 |
| 20260906001521 | 68 | 279 | 8.0 | 14.0 | 0.00 | 0.01 | 0.01 | 54 | 1017.2 |
| 20260906000022 | 70 | 346 | 6.0 | 14.0 | 0.00 | 0.01 | 0.01 | 51 | 1017.1 |
| 20260905234521 | 70 | 355 | 4.0 | 14.0 | 0.00 | 0.01 | 0.01 | 47 | 1017.3 |
| 20260905233024 | 72 | 305 | 5.0 | 13.0 | 0.00 | 0.01 | 0.01 | 46 | 1017.2 |
| 20260905231518 | 73 | 35 | 6.0 | 13.0 | 0.00 | 0.01 | 0.01 | 45 | 1017.2 |
| 20260905230017 | 73 | 346 | 5.0 | 12.0 | 0.00 | 0.01 | 0.01 | 44 | 1017.1 |